Date String (YYYY-MM-DD hh:mm:ss) UTC,Instrument flags,Ambient pressure (hPa),Sample flow (lpm),Bypass flow (lpm),Sample temperature (°C),Ambient temperature (°C),ASC tube jacket temperature (°C),LED temperature (°C),Box temperature (°C),Sample RH (%),Span deviation,Mass concentration (μg/m³),Mass concentration (μg/m³),Mass concentration (μg/m³)
DateTimeUTC,F1_M11,P_M11,Q1_M11,Q2_M11,T1_M11,T2_M11,T3_M11,T4_M11,T5_M11,U1_M11,ZSPAN_M11,X0_M11,X2_M11,X1_M11
2022-11-26 16:00:00,,0820.9,5.00,0.00,22.7,21.8,00.0,31.4,24.6,12.9,0000.0,0000.71,0000.41,0000.31
2022-11-26 16:01:00,,0820.8,4.99,0.00,22.7,21.8,00.0,31.5,24.6,13.1,0000.0,0000.70,0000.40,0000.31
2022-11-26 16:02:00,,0820.8,4.99,0.00,22.7,21.9,00.0,31.5,24.7,12.7,0000.0,0000.71,0000.41,0000.31
2022-11-26 16:03:00,,0820.8,5.00,0.00,22.8,21.9,00.0,31.5,24.7,12.6,0000.0,0000.68,0000.40,0000.31
2022-11-26 16:04:00,,0820.8,5.00,0.00,22.8,21.9,00.0,31.5,24.7,12.2,0000.0,0000.66,0000.39,0000.31
2022-11-26 16:05:00,,0820.7,5.02,0.00,22.8,22.0,00.0,31.6,24.8,12.1,0000.0,0000.61,0000.38,0000.31
2022-11-26 16:06:00,,0820.7,5.00,0.00,22.9,22.0,00.0,31.6,24.8,11.5,0000.0,0000.53,0000.36,0000.31
2022-11-26 16:07:00,,0820.8,4.98,0.00,22.9,22.0,00.0,31.6,24.8,12.4,0000.0,0000.48,0000.36,0000.31
2022-11-26 16:08:00,,0820.7,5.01,0.00,22.9,22.1,00.0,31.6,24.9,15.9,0000.0,0000.51,0000.37,0000.31
2022-11-26 16:09:00,,0820.7,5.01,0.00,22.9,22.1,00.0,31.7,24.9,15.7,0000.0,0000.68,0000.38,0000.32
2022-11-26 16:10:00,,0820.8,5.00,0.00,23.0,22.1,00.0,31.7,24.9,16.2,0000.0,0000.73,0000.39,0000.34
2022-11-26 16:11:00,,0820.7,5.00,0.00,23.0,22.2,00.0,31.7,24.9,15.0,0000.0,0000.75,0000.39,0000.34
2022-11-26 16:12:00,,0820.7,5.00,0.00,23.0,22.2,00.0,31.7,25.0,16.4,0000.0,0000.82,0000.43,0000.36
2022-11-26 16:13:00,,0820.7,4.99,0.00,23.1,22.2,00.0,31.8,25.0,17.5,0000.0,0001.12,0000.49,0000.38
2022-11-26 16:14:00,,0820.7,5.01,0.00,23.1,22.3,00.0,31.8,25.0,17.5,0000.0,0001.43,0000.57,0000.39
2022-11-26 16:15:00,,0820.8,5.02,0.00,23.1,22.3,00.0,31.8,25.0,17.9,0000.0,0001.50,0000.59,0000.40
2022-11-26 16:16:00,,0820.7,4.99,0.00,23.1,22.3,00.0,31.8,25.1,15.9,0000.0,0001.53,0000.61,0000.42
2022-11-26 16:17:00,,0820.8,5.00,0.00,23.2,22.3,00.0,31.9,25.1,15.4,0000.0,0001.57,0000.64,0000.43
2022-11-26 16:18:00,,0820.7,5.02,0.00,23.2,22.4,00.0,31.9,25.1,15.0,0000.0,0001.59,0000.66,0000.45
2022-11-26 16:19:00,,0820.8,4.99,0.00,23.2,22.4,00.0,31.9,25.1,15.0,0000.0,0001.61,0000.67,0000.46
2022-11-26 16:20:00,,0820.8,4.99,0.00,23.3,22.4,00.0,32.0,25.2,15.5,0000.0,0001.66,0000.69,0000.47
2022-11-26 16:21:00,,0820.7,5.00,0.00,23.3,22.4,00.0,32.0,25.2,14.6,0000.0,0001.53,0000.70,0000.46
2022-11-26 16:22:00,,0820.7,5.01,0.00,23.3,22.5,00.0,32.0,25.2,13.8,0000.0,0001.56,0000.72,0000.46
2022-11-26 16:23:00,,0820.6,5.01,0.00,23.3,22.5,00.0,32.0,25.2,14.5,0000.0,0001.61,0000.75,0000.47
2022-11-26 16:24:00,,0820.7,4.99,0.00,23.4,22.5,00.0,32.1,25.3,14.9,0000.0,0001.63,0000.75,0000.47
2022-11-26 16:25:00,,0820.7,4.99,0.00,23.4,22.5,00.0,32.1,25.3,15.2,0000.0,0001.60,0000.73,0000.47
2022-11-26 16:26:00,,0820.7,5.01,0.00,23.4,22.6,00.0,32.1,25.3,14.7,0000.0,0001.37,0000.68,0000.47
2022-11-26 16:27:00,,0820.7,5.01,0.00,23.4,22.6,00.0,32.1,25.4,13.3,0000.0,0001.36,0000.68,0000.45
2022-11-26 16:28:00,,0820.7,5.00,0.00,23.5,22.6,00.0,32.2,25.4,13.8,0000.0,0001.69,0000.68,0000.44
2022-11-26 16:29:00,,0820.7,5.00,0.00,23.5,22.6,00.0,32.2,25.4,13.8,0000.0,0001.95,0000.67,0000.43
2022-11-26 16:30:00,,0820.8,4.99,0.00,23.5,22.7,00.0,32.2,25.4,13.8,0000.0,0001.94,0000.66,0000.42
2022-11-26 16:31:00,,0820.8,4.99,0.00,23.5,22.7,00.0,32.2,25.5,13.7,0000.0,0001.91,0000.65,0000.41
2022-11-26 16:32:00,,0820.8,5.01,0.00,23.6,22.7,00.0,32.3,25.5,13.6,0000.0,0001.86,0000.63,0000.41
2022-11-26 16:33:00,,0820.8,5.01,0.00,23.6,22.7,00.0,32.3,25.5,14.0,0000.0,0001.80,0000.61,0000.41
2022-11-26 16:34:00,,0820.8,5.00,0.00,23.6,22.8,00.0,32.3,25.5,14.7,0000.0,0001.70,0000.56,0000.40
2022-11-26 16:35:00,,0820.8,5.00,0.00,23.6,22.8,00.0,32.3,25.5,14.8,0000.0,0001.65,0000.54,0000.39
2022-11-26 16:36:00,,0820.9,5.00,0.00,23.7,22.8,00.0,32.4,25.5,14.1,0000.0,0001.39,0000.50,0000.37
2022-11-26 16:37:00,,0820.8,5.00,0.00,23.7,22.9,00.0,32.4,25.6,14.0,0000.0,0001.32,0000.47,0000.36
2022-11-26 16:38:00,,0820.9,4.98,0.00,23.7,22.9,00.0,32.4,25.6,15.0,0000.0,0001.27,0000.46,0000.37
2022-11-26 16:39:00,,0820.9,5.00,0.00,23.7,22.9,00.0,32.4,25.6,15.1,0000.0,0001.06,0000.46,0000.37
2022-11-26 16:40:00,,0820.9,5.00,0.00,23.8,23.0,00.0,32.5,25.7,14.6,0000.0,0000.75,0000.47,0000.37
2022-11-26 16:41:00,,0820.9,5.01,0.00,23.8,23.0,00.0,32.5,25.7,15.2,0000.0,0000.81,0000.48,0000.37
2022-11-26 16:42:00,,0820.9,4.99,0.00,23.8,23.0,00.0,32.5,25.7,15.5,0000.0,0000.92,0000.51,0000.39
2022-11-26 16:43:00,,0820.9,5.00,0.00,23.9,23.0,00.0,32.6,25.7,15.2,0000.0,0000.93,0000.52,0000.40
2022-11-26 16:44:00,,0820.9,5.00,0.00,23.9,23.0,00.0,32.6,25.8,15.1,0000.0,0001.04,0000.58,0000.42
2022-11-26 16:45:00,,0821.0,5.01,0.00,23.9,23.0,00.0,32.6,25.9,15.6,0000.0,0001.13,0000.62,0000.43
2022-11-26 16:46:00,,0821.0,5.00,0.00,23.9,23.1,00.0,32.7,25.9,15.7,0000.0,0001.86,0000.63,0000.44
2022-11-26 16:47:00,,0821.0,5.01,0.00,23.9,23.1,00.0,32.7,25.9,15.9,0000.0,0002.08,0000.65,0000.46
2022-11-26 16:48:00,,0821.0,4.99,0.00,24.0,23.1,00.0,32.7,25.9,15.3,0000.0,0002.18,0000.69,0000.48
2022-11-26 16:49:00,,0820.9,5.00,0.00,24.0,23.1,00.0,32.7,25.9,15.3,0000.0,0002.30,0000.71,0000.48
2022-11-26 16:50:00,,0820.9,4.99,0.00,24.0,23.1,00.0,32.7,25.9,14.9,0000.0,0002.36,0000.73,0000.49
2022-11-26 16:51:00,,0820.9,5.01,0.00,24.0,23.1,00.0,32.7,25.9,14.6,0000.0,0002.54,0000.79,0000.50
2022-11-26 16:52:00,,0820.9,5.01,0.00,24.0,23.1,00.0,32.8,26.0,13.7,0000.0,0002.58,0000.80,0000.50
2022-11-26 16:53:00,,0820.9,5.00,0.00,24.1,23.2,00.0,32.8,26.0,13.6,0000.0,0002.44,0000.77,0000.49
2022-11-26 16:54:00,,0820.9,4.99,0.00,24.1,23.2,00.0,32.8,26.0,13.0,0000.0,0002.40,0000.75,0000.48
2022-11-26 16:55:00,,0820.9,4.99,0.00,24.1,23.2,00.0,32.8,26.0,12.7,0000.0,0002.29,0000.70,0000.47
2022-11-26 16:56:00,,0820.9,4.99,0.00,24.1,23.2,00.0,32.9,26.1,12.9,0000.0,0002.22,0000.67,0000.47
2022-11-26 16:57:00,,0820.9,5.00,0.00,24.2,23.3,00.0,32.9,26.1,13.3,0000.0,0001.60,0000.68,0000.47
2022-11-26 16:58:00,,0820.9,5.01,0.00,24.2,23.3,00.0,32.9,26.1,13.7,0000.0,0001.40,0000.69,0000.47
2022-11-26 16:59:00,,0820.9,5.00,0.00,24.2,23.3,00.0,32.9,26.1,13.4,0000.0,0001.42,0000.67,0000.46
